Time,TemperatureF,DewpointF,PressureIn,WindDirection,WindDirectionDegrees,WindSpeedMPH,WindSpeedGustMPH,Humidity,HourlyPrecipIn,Conditions,Clouds,dailyrainin,SoftwareType,DateUTC
2013-05-28 00:02:00,55.0,55.0,-100.00,ESE,105,2.0,6.0,99,0.00,,,0.00,,2013-05-28 05:02:00,
2013-05-28 00:12:00,55.0,55.0,-100.00,East,85,4.0,9.0,99,0.00,,,0.00,,2013-05-28 05:12:00,
2013-05-28 01:21:00,55.0,54.0,-100.00,NE,45,3.0,7.0,98,0.00,,,0.00,,2013-05-28 06:21:00,
2013-05-28 01:32:00,54.0,54.0,-100.00,ESE,105,4.0,9.0,98,0.00,,,0.00,,2013-05-28 06:32:00,
2013-05-28 01:41:00,54.0,54.0,-100.00,East,85,1.0,9.0,97,0.00,,,0.00,,2013-05-28 06:41:00,
2013-05-28 01:51:00,54.0,54.0,-100.00,East,100,3.0,7.0,97,0.00,,,0.00,,2013-05-28 06:51:00,
2013-05-28 02:01:00,54.0,54.0,-100.00,SE,125,4.0,9.0,97,0.00,,,0.00,,2013-05-28 07:01:00,
2013-05-28 02:11:00,54.0,54.0,-100.00,East,95,2.0,8.0,97,0.00,,,0.00,,2013-05-28 07:11:00,
2013-05-28 02:21:00,54.0,54.0,-100.00,ESE,110,2.0,7.0,96,0.00,,,0.00,,2013-05-28 07:21:00,
2013-05-28 02:32:00,54.0,54.0,-100.00,ENE,75,4.0,8.0,96,0.00,,,0.00,,2013-05-28 07:32:00,
2013-05-28 02:42:00,54.0,54.0,-100.00,NE,40,2.0,9.0,96,0.00,,,0.00,,2013-05-28 07:42:00,
2013-05-28 02:52:00,54.0,54.0,-100.00,East,90,2.0,7.0,96,0.00,,,0.00,,2013-05-28 07:52:00,
2013-05-28 03:02:00,54.0,54.0,-100.00,East,85,4.0,7.0,96,0.00,,,0.00,,2013-05-28 08:02:00,
2013-05-28 03:11:00,54.0,54.0,-100.00,ESE,120,4.0,6.0,96,0.00,,,0.00,,2013-05-28 08:11:00,
2013-05-28 03:21:00,54.0,54.0,-100.00,East,100,1.0,6.0,96,0.00,,,0.00,,2013-05-28 08:21:00,
2013-05-28 03:32:00,54.0,54.0,-100.00,ENE,70,4.0,8.0,96,0.00,,,0.00,,2013-05-28 08:32:00,
2013-05-28 03:42:00,54.0,54.0,-100.00,North,10,2.0,6.0,96,0.00,,,0.00,,2013-05-28 08:42:00,
2013-05-28 03:51:00,54.0,54.0,-100.00,NE,45,2.0,9.0,96,0.00,,,0.00,,2013-05-28 08:51:00,
2013-05-28 04:01:00,54.0,54.0,-100.00,NE,55,4.0,7.0,96,0.00,,,0.00,,2013-05-28 09:01:00,
2013-05-28 04:11:00,54.0,54.0,-100.00,NE,55,4.0,10.0,96,0.00,,,0.00,,2013-05-28 09:11:00,
2013-05-28 04:21:00,54.0,54.0,-100.00,East,95,3.0,7.0,96,0.00,,,0.00,,2013-05-28 09:21:00,
2013-05-28 04:33:00,54.0,54.0,-100.00,SE,125,1.0,5.0,96,0.00,,,0.00,,2013-05-28 09:33:00,
2013-05-28 04:42:00,54.0,54.0,-100.00,SE,125,2.0,6.0,96,0.00,,,0.00,,2013-05-28 09:42:00,
2013-05-28 04:53:00,54.0,54.0,-100.00,ESE,110,2.0,6.0,96,0.00,,,0.00,,2013-05-28 09:53:00,
2013-05-28 05:03:00,54.0,54.0,-100.00,East,90,4.0,7.0,96,0.00,,,0.00,,2013-05-28 10:03:00,
2013-05-28 05:12:00,54.0,54.0,-100.00,East,90,1.0,7.0,96,0.00,,,0.00,,2013-05-28 10:12:00,
2013-05-28 05:22:00,54.0,54.0,-100.00,NE,40,2.0,7.0,96,0.00,,,0.00,,2013-05-28 10:22:00,
2013-05-28 05:32:00,54.0,54.0,-100.00,East,80,3.0,5.0,96,0.00,,,0.00,,2013-05-28 10:32:00,
2013-05-28 05:42:00,54.0,54.0,-100.00,East,85,2.0,6.0,96,0.00,,,0.00,,2013-05-28 10:42:00,
2013-05-28 05:53:00,54.0,54.0,-100.00,NE,45,3.0,7.0,96,0.00,,,0.00,,2013-05-28 10:53:00,
2013-05-28 06:02:00,54.0,54.0,-100.00,NNE,25,2.0,6.0,96,0.00,,,0.00,,2013-05-28 11:02:00,
2013-05-28 06:11:00,54.0,54.0,-100.00,ENE,70,2.0,6.0,96,0.00,,,0.00,,2013-05-28 11:11:00,
2013-05-28 06:22:00,54.0,54.0,-100.00,ENE,75,2.0,9.0,97,0.00,,,0.00,,2013-05-28 11:22:00,
2013-05-28 06:32:00,54.0,54.0,-100.00,NNE,20,2.0,4.0,97,0.00,,,0.00,,2013-05-28 11:32:00,
2013-05-28 06:42:00,54.0,54.0,-100.00,NE,45,3.0,6.0,98,0.00,,,0.00,,2013-05-28 11:42:00,
2013-05-28 06:52:00,54.0,54.0,-100.00,NNE,25,3.0,6.0,98,0.00,,,0.00,,2013-05-28 11:52:00,
2013-05-28 07:01:00,54.0,54.0,-100.00,ENE,70,3.0,7.0,98,0.00,,,0.00,,2013-05-28 12:01:00,
2013-05-28 07:21:00,54.0,54.0,-100.00,NE,45,2.0,4.0,99,0.00,,,0.00,,2013-05-28 12:21:00,
2013-05-28 07:32:00,54.0,54.0,-100.00,NE,45,1.0,4.0,99,0.00,,,0.00,,2013-05-28 12:32:00,
2013-05-28 07:42:00,54.0,54.0,-100.00,NE,40,2.0,4.0,99,0.00,,,0.00,,2013-05-28 12:42:00,
2013-05-28 07:52:00,54.0,54.0,-100.00,ENE,70,2.0,6.0,99,0.00,,,0.00,,2013-05-28 12:52:00,
2013-05-28 08:01:00,54.0,54.0,-100.00,North,5,1.0,6.0,99,0.00,,,0.00,,2013-05-28 13:01:00,
2013-05-28 08:11:00,54.0,54.0,-100.00,NE,45,2.0,6.0,99,0.00,,,0.00,,2013-05-28 13:11:00,
2013-05-28 08:21:00,54.0,54.0,-100.00,NNE,30,3.0,5.0,99,0.00,,,0.00,,2013-05-28 13:21:00,
2013-05-28 08:32:00,54.0,54.0,-100.00,NNE,25,4.0,7.0,99,0.00,,,0.00,,2013-05-28 13:32:00,
2013-05-28 08:42:00,54.0,54.0,-100.00,NE,35,2.0,4.0,99,0.00,,,0.00,,2013-05-28 13:42:00,
2013-05-28 08:52:00,54.0,54.0,-100.00,ENE,60,4.0,6.0,99,0.00,,,0.00,,2013-05-28 13:52:00,
2013-05-28 09:01:00,54.0,54.0,-100.00,ENE,60,4.0,7.0,99,0.00,,,0.00,,2013-05-28 14:01:00,
2013-05-28 09:11:00,54.0,54.0,-100.00,ENE,65,2.0,6.0,99,0.00,,,0.00,,2013-05-28 14:11:00,
2013-05-28 09:32:00,54.0,54.0,-100.00,NE,55,1.0,5.0,99,0.00,,,0.00,,2013-05-28 14:32:00,
2013-05-28 10:32:00,56.0,55.0,-100.00,ENE,60,3.0,6.0,99,0.00,,,0.00,,2013-05-28 15:32:00,
2013-05-28 10:43:00,56.0,55.0,-100.00,ENE,75,4.0,9.0,99,0.00,,,0.00,,2013-05-28 15:43:00,
2013-05-28 11:42:00,56.0,55.0,-100.00,East,95,4.0,7.0,99,0.00,,,0.00,,2013-05-28 16:42:00,
2013-05-28 11:52:00,56.0,55.0,-100.00,SE,135,2.0,6.0,98,0.00,,,0.00,,2013-05-28 16:52:00,
2013-05-28 12:02:00,56.0,55.0,-100.00,NE,40,2.0,7.0,98,0.00,,,0.00,,2013-05-28 17:02:00,
2013-05-28 12:12:00,56.0,55.0,-100.00,SE,135,1.0,8.0,97,0.00,,,0.00,,2013-05-28 17:12:00,
2013-05-28 12:22:00,57.0,55.0,-100.00,ESE,120,3.0,7.0,97,0.00,,,0.00,,2013-05-28 17:22:00,
2013-05-28 12:32:00,57.0,55.0,-100.00,ENE,65,1.0,6.0,96,0.00,,,0.00,,2013-05-28 17:32:00,
2013-05-28 12:42:00,57.0,55.0,-100.00,ESE,115,2.0,6.0,96,0.00,,,0.00,,2013-05-28 17:42:00,
2013-05-28 12:51:00,56.0,55.0,-100.00,SSW,195,3.0,6.0,96,0.00,,,0.00,,2013-05-28 17:51:00,
2013-05-28 13:01:00,57.0,55.0,-100.00,SE,135,0.0,4.0,96,0.00,,,0.00,,2013-05-28 18:01:00,
2013-05-28 13:11:00,57.0,55.0,-100.00,SE,145,1.0,2.0,96,0.00,,,0.00,,2013-05-28 18:11:00,
2013-05-28 13:21:00,57.0,57.0,-100.00,SSE,150,0.0,2.0,96,0.00,,,0.00,,2013-05-28 18:21:00,
2013-05-28 13:32:00,58.0,57.0,-100.00,NNE,25,1.0,2.0,96,0.00,,,0.00,,2013-05-28 18:32:00,
2013-05-28 13:42:00,58.0,57.0,-100.00,NNE,25,1.0,3.0,96,0.00,,,0.00,,2013-05-28 18:42:00,
2013-05-28 13:52:00,58.0,57.0,-100.00,NNE,15,1.0,3.0,96,0.00,,,0.00,,2013-05-28 18:52:00,
2013-05-28 14:01:00,58.0,57.0,-100.00,WNW,300,0.0,2.0,96,0.00,,,0.00,,2013-05-28 19:01:00,
2013-05-28 14:11:00,58.0,57.0,-100.00,NE,45,1.0,3.0,96,0.00,,,0.00,,2013-05-28 19:11:00,
2013-05-28 14:21:00,58.0,57.0,-100.00,ENE,65,0.0,1.0,96,0.00,,,0.00,,2013-05-28 19:21:00,
2013-05-28 14:32:00,58.0,57.0,-100.00,SSW,195,0.0,3.0,96,0.00,,,0.00,,2013-05-28 19:32:00,
2013-05-28 14:41:00,58.0,57.0,-100.00,NNE,25,1.0,3.0,96,0.00,,,0.00,,2013-05-28 19:41:00,
2013-05-28 14:52:00,58.0,57.0,-100.00,NNE,15,2.0,6.0,95,0.00,,,0.00,,2013-05-28 19:52:00,
2013-05-28 15:01:00,59.0,57.0,-100.00,NE,35,2.0,5.0,95,0.00,,,0.00,,2013-05-28 20:01:00,
2013-05-28 15:11:00,59.0,57.0,-100.00,NNE,25,2.0,6.0,94,0.00,,,0.00,,2013-05-28 20:11:00,
2013-05-28 15:22:00,59.0,57.0,-100.00,SSE,150,1.0,4.0,92,0.00,,,0.00,,2013-05-28 20:22:00,
2013-05-28 15:32:00,59.0,57.0,-100.00,ESE,105,2.0,2.0,92,0.00,,,0.00,,2013-05-28 20:32:00,
2013-05-28 15:42:00,59.0,57.0,-100.00,SSE,160,0.0,4.0,92,0.00,,,0.00,,2013-05-28 20:42:00,
2013-05-28 15:52:00,59.0,57.0,-100.00,North,10,1.0,4.0,92,0.00,,,0.00,,2013-05-28 20:52:00,
2013-05-28 16:01:00,59.0,57.0,-100.00,NE,35,1.0,2.0,92,0.00,,,0.00,,2013-05-28 21:01:00,
2013-05-28 16:11:00,59.0,57.0,-100.00,SSE,150,1.0,4.0,92,0.00,,,0.00,,2013-05-28 21:11:00,
2013-05-28 16:21:00,59.0,57.0,-100.00,SSE,155,3.0,5.0,92,0.00,,,0.00,,2013-05-28 21:21:00,
2013-05-28 16:33:00,59.0,57.0,-100.00,ESE,120,1.0,4.0,92,0.00,,,0.00,,2013-05-28 21:33:00,
2013-05-28 16:43:00,59.0,57.0,-100.00,NE,50,1.0,2.0,92,0.00,,,0.00,,2013-05-28 21:43:00,
2013-05-28 16:53:00,59.0,57.0,-100.00,ESE,110,1.0,4.0,92,0.00,,,0.00,,2013-05-28 21:53:00,
2013-05-28 17:02:00,59.0,57.0,-100.00,South,180,1.0,3.0,93,0.00,,,0.00,,2013-05-28 22:02:00,
2013-05-28 17:12:00,59.0,57.0,-100.00,SE,130,1.0,4.0,93,0.00,,,0.00,,2013-05-28 22:12:00,
2013-05-28 17:22:00,58.0,57.0,-100.00,SW,225,1.0,4.0,93,0.00,,,0.00,,2013-05-28 22:22:00,
2013-05-28 17:32:00,58.0,57.0,-100.00,SW,235,0.0,2.0,93,0.00,,,0.00,,2013-05-28 22:32:00,
2013-05-28 17:42:00,58.0,57.0,-100.00,West,280,0.0,2.0,94,0.00,,,0.00,,2013-05-28 22:42:00,
2013-05-28 17:52:00,58.0,57.0,-100.00,WSW,240,0.0,1.0,94,0.00,,,0.00,,2013-05-28 22:52:00,
2013-05-28 18:02:00,58.0,57.0,-100.00,SW,215,1.0,2.0,94,0.00,,,0.00,,2013-05-28 23:02:00,
2013-05-28 18:11:00,59.0,57.0,-100.00,SSW,210,0.0,2.0,94,0.00,,,0.00,,2013-05-28 23:11:00,
2013-05-28 18:21:00,59.0,57.0,-100.00,SW,230,1.0,2.0,94,0.00,,,0.00,,2013-05-28 23:21:00,
2013-05-28 18:32:00,59.0,57.0,-100.00,SW,220,0.0,2.0,94,0.00,,,0.00,,2013-05-28 23:32:00,
2013-05-28 18:42:00,59.0,57.0,-100.00,East,100,1.0,2.0,94,0.00,,,0.00,,2013-05-28 23:42:00,
2013-05-28 18:52:00,59.0,57.0,-100.00,SE,135,1.0,3.0,94,0.00,,,0.00,,2013-05-28 23:52:00,
2013-05-28 19:02:00,59.0,57.0,-100.00,WSW,250,1.0,2.0,94,0.00,,,0.00,,2013-05-29 00:02:00,
2013-05-28 19:11:00,59.0,57.0,-100.00,East,90,0.0,1.0,94,0.00,,,0.00,,2013-05-29 00:11:00,
2013-05-28 19:21:00,59.0,57.0,-100.00,SSW,205,0.0,3.0,93,0.00,,,0.00,,2013-05-29 00:21:00,
2013-05-28 19:32:00,59.0,57.0,-100.00,SSW,195,2.0,3.0,93,0.00,,,0.00,,2013-05-29 00:32:00,
2013-05-28 19:41:00,59.0,57.0,-100.00,SSW,205,2.0,6.0,93,0.00,,,0.00,,2013-05-29 00:41:00,
2013-05-28 19:52:00,59.0,57.0,-100.00,SW,220,0.0,3.0,93,0.00,,,0.00,,2013-05-29 00:52:00,
2013-05-28 20:01:00,59.0,57.0,-100.00,South,190,0.0,2.0,93,0.00,,,0.00,,2013-05-29 01:01:00,
2013-05-28 20:11:00,59.0,57.0,-100.00,SSW,195,1.0,2.0,94,0.00,,,0.00,,2013-05-29 01:11:00,
2013-05-28 20:22:00,59.0,57.0,-100.00,SW,220,0.0,2.0,94,0.00,,,0.00,,2013-05-29 01:22:00,
2013-05-28 20:32:00,59.0,57.0,-100.00,WNW,285,0.0,1.0,94,0.00,,,0.00,,2013-05-29 01:32:00,
2013-05-28 20:41:00,59.0,57.0,-100.00,West,265,0.0,1.0,94,0.00,,,0.00,,2013-05-29 01:41:00,
2013-05-28 20:52:00,59.0,57.0,-100.00,North,350,0.0,1.0,95,0.00,,,0.00,,2013-05-29 01:52:00,
2013-05-28 21:02:00,58.0,57.0,-100.00,North,5,0.0,1.0,95,0.00,,,0.00,,2013-05-29 02:02:00,
2013-05-28 21:12:00,58.0,57.0,-100.00,North,5,0.0,1.0,95,0.00,,,0.00,,2013-05-29 02:12:00,
2013-05-28 21:21:00,58.0,57.0,-100.00,West,265,0.0,1.0,96,0.00,,,0.00,,2013-05-29 02:21:00,
2013-05-28 21:32:00,58.0,57.0,-100.00,North,0,1.0,1.0,96,0.00,,,0.00,,2013-05-29 02:32:00,
2013-05-28 21:42:00,58.0,57.0,-100.00,West,275,1.0,2.0,96,0.00,,,0.00,,2013-05-29 02:42:00,
2013-05-28 21:51:00,58.0,57.0,-100.00,SE,130,2.0,4.0,96,0.00,,,0.00,,2013-05-29 02:51:00,
2013-05-28 22:02:00,58.0,57.0,-100.00,South,185,2.0,3.0,96,0.00,,,0.00,,2013-05-29 03:02:00,
2013-05-28 22:12:00,58.0,57.0,-100.00,ENE,60,1.0,3.0,96,0.00,,,0.00,,2013-05-29 03:12:00,
2013-05-28 22:21:00,58.0,57.0,-100.00,NNE,15,0.0,1.0,96,0.00,,,0.00,,2013-05-29 03:21:00,
2013-05-28 22:33:00,58.0,57.0,-100.00,NW,310,0.0,2.0,96,0.00,,,0.00,,2013-05-29 03:33:00,
2013-05-28 22:43:00,58.0,57.0,-100.00,WSW,250,0.0,2.0,96,0.00,,,0.00,,2013-05-29 03:43:00,
2013-05-28 22:53:00,58.0,57.0,-100.00,SW,235,0.0,0.0,96,0.00,,,0.00,,2013-05-29 03:53:00,
2013-05-28 23:02:00,58.0,57.0,-100.00,WSW,240,0.0,1.0,96,0.00,,,0.00,,2013-05-29 04:02:00,
2013-05-28 23:12:00,58.0,57.0,-100.00,SSW,205,1.0,2.0,96,0.00,,,0.00,,2013-05-29 04:12:00,
2013-05-28 23:23:00,58.0,57.0,-100.00,SW,220,2.0,4.0,97,0.00,,,0.00,,2013-05-29 04:23:00,
2013-05-28 23:33:00,58.0,57.0,-100.00,NW,315,0.0,2.0,97,0.00,,,0.00,,2013-05-29 04:33:00,
2013-05-28 23:42:00,58.0,57.0,-100.00,SSW,205,2.0,3.0,97,0.00,,,0.00,,2013-05-29 04:42:00,
2013-05-28 23:52:00,58.0,57.0,-100.00,SW,225,1.0,4.0,97,0.00,,,0.00,,2013-05-29 04:52:00,